Dewpoint
29 25 23 22 20 20 21 20 19 18 19 18 21 20 15 15 15 16 15 15 15 14 14 14 14 14 14 14 15 15 16 16 16 15 15 16 16 17 17 17 18 18 18 26 31 32 31 33 32 31 29 28 27 27 26 29 32 33 33 34 33 35 35 37 39 41 40 38 37 36 34 33 33 32 33 33 33 32 31 33 33 34 34 35 34 34
26 24 24 22 19 19 20 20 20 19 19 18 19 19 17 22 16 17 16 17 17 16 15 14 15 16 16 16 17 17 17 16 16 17 17 16 16 17 18 19 20 19 24 29 27 27 32 30 34 33 32 31 27 26 26 28 30 32 33 33 33 34 34 35 37 39 40 39 37 35 34 34 34 32 32 31 32 32 32 32 33 33 34 35 34 33
24 23 23 23 23 22 20 19 19 19 19 21 18 20 20 18 20 18 18 18 19 18 16 17 16 16 16 17 17 17 17 17 17 17 17 16 17 18 20 22 21 22 23 22 22 26 28 32 32 33 33 31 27 26 27 28 31 32 33 33 33 33 34 35 36 37 38 38 38 37 36 35 34 34 33 32 32 32 31 32 33 33 33 34 34 34
23 25 24 24 23 22 22 22 21 22 21 19 19 19 18 20 18 18 16 19 18 17 16 17 17 17 17 17 17 18 17 18 19 19 20 19 18 18 18 19 22 22 23 23 22 21 22 32 27 29 31 30 30 29 28 28 30 31 32 32 32 32 33 34 35 36 37 38 37 36 35 35 34 33 34 33 33 33 33 32 33 32 33 33 33 33
23 24 24 24 24 22 21 21 22 20 19 24 23 21 19 20 19 17 16 19 19 18 20 17 16 16 16 15 15 16 18 18 18 18 18 22 28 25 27 25 25 22 22 23 22 23 23 24 26 28 29 31 30 31 30 30 29 28 32 33 32 32 32 33 34 36 36 36 35 34 34 35 34 34 33 32 31 32 32 31 31 31 32 33 33 33
23 24 25 24 25 23 23 21 23 23 20 21 24 21 19 18 17 17 19 19 18 19 18 17 14 18 17 20 18 17 15 14 15 16 17 18 26 26 20 21 23 29 28 25 23 24 25 26 27 28 29 29 30 30 31 31 31 30 32 33 33 32 32 33 34 35 35 35 34 32 32 31 31 31 31 30 30 31 31 30 31 31 32 32 32 32
24 25 25 24 24 25 24 21 23 23 21 20 19 23 20 19 20 20 20 20 18 13 17 19 15 15 16 15 15 14 15 14 15 17 17 17 17 19 22 24 23 23 23 26 26 26 25 26 26 26 27 29 29 29 31 31 31 31 32 33 33 32 32 33 33 35 34 34 34 33 32 32 32 31 31 31 31 31 30 31 30 30 31 32 32 32
23 22 24 25 23 24 23 21 23 21 21 20 24 24 23 21 22 22 22 21 19 23 23 22 17 15 16 17 15 14 14 15 15 16 17 17 17 18 19 23 24 24 23 25 24 24 25 25 25 24 26 27 28 29 30 31 32 32 31 33 32 32 32 33 33 34 34 33 33 33 33 32 32 32 32 32 31 32 31 31 31 30 30 31 31 31
22 22 23 23 23 23 22 23 25 22 20 21 24 24 22 20 21 23 22 21 20 18 20 20 22 15 16 19 16 16 15 15 15 15 16 17 17 18 20 22 22 22 23 23 24 24 24 24 25 26 27 28 29 29 31 31 32 33 33 33 32 32 32 33 33 33 34 33 33 33 32 32 33 32 33 32 33 32 32 31 31 30 30 30 31 31
19 21 23 24 24 21 23 24 24 24 20 23 25 26 25 25 24 22 20 20 18 16 16 16 19 13 16 23 16 17 16 15 16 16 16 16 17 18 17 20 22 20 22 24 24 24 24 25 26 28 27 27 27 28 30 31 31 32 32 32 31 31 32 32 32 33 33 33 33 32 32 32 32 32 31 32 32 32 32 31 31 31 30 30 30 30
22 29 27 23 21 20 23 22 26 24 21 26 25 23 24 22 22 21 20 21 17 12 18 19 18 16 15 20 16 18 21 16 16 15 17 17 19 17 20 21 23 21 23 23 24 23 24 25 25 26 25 26 26 27 29 30 30 31 31 31 30 30 31 32 33 33 32 32 32 32 32 32 32 32 32 31 31 31 31 30 31 30 30 30 30 30
23 23 23 26 27 23 23 23 26 28 27 26 24 20 19 21 17 15 11 16 12 13 17 19 18 15 14 17 17 16 15 17 16 16 17 17 17 19 20 20 22 22 23 22 23 24 24 25 25 25 25 25 25 26 27 29 30 30 30 30 30 30 30 31 32 33 33 32 32 32 32 32 32 31 30 30 31 30 31 31 30 30 30 29 30 29
21 23 25 23 31 21 23 21 20 27 26 24 22 22 15 15 14 10 9 9 10 15 19 18 17 14 14 16 15 17 17 18 18 18 17 17 16 18 19 21 23 24 22 24 25 26 26 26 26 26 25 25 25 25 26 28 29 29 29 29 30 29 30 31 31 32 32 32 32 32 31 31 31 31 30 30 30 31 30 30 30 30 29 29 29 29
24 23 22 24 22 25 22 18 19 19 24 22 20 21 16 12 9 7 8 6 10 15 17 17 18 15 17 17 18 17 17 18 18 19 21 18 19 22 21 23 23 25 25 26 27 28 28 27 27 27 26 25 25 24 25 27 28 29 28 28 29 29 29 30 31 31 32 32 32 32 31 31 31 31 31 30 30 30 30 31 30 30 29 29 29 29
16 23 25 21 21 25 21 19 20 21 23 21 25 20 21 18 12 13 11 14 16 20 16 16 16 16 15 19 19 19 18 18 17 17 20 22 21 23 24 24 25 26 27 28 28 28 28 28 28 28 27 26 26 25 25 25 26 28 28 28 27 28 28 29 30 31 31 31 32 32 32 32 31 31 30 30 31 30 30 30 30 30 30 29 29 29
20 23 26 24 25 23 23 23 25 24 23 24 25 23 17 17 23 16 20 19 19 19 18 14 19 19 17 20 23 23 23 22 18 18 17 18 19 24 25 27 27 27 28 28 28 28 28 28 28 28 28 27 27 27 26 26 26 26 27 28 27 27 27 28 29 30 30 30 30 31 31 31 30 30 31 31 30 30 30 30 30 30 30 29 29 30
22 19 25 23 24 22 23 21 21 23 17 22 21 17 21 25 21 20 22 22 20 19 18 21 20 23 24 25 25 25 21 17 17 14 22 24 26 27 27 28 27 28 28 28 28 27 27 27 28 28 28 28 28 27 27 27 26 26 26 26 26 27 27 27 28 29 29 30 30 30 30 30 30 30 30 30 30 30 30 30 30 29 30 30 30 30
26 26 24 22 21 21 23 25 25 25 24 22 19 21 25 30 28 20 17 16 19 17 18 23 21 21 22 23 25 22 21 19 18 22 26 27 28 27 28 28 27 27 27 27 26 27 27 27 27 27 28 28 28 27 27 27 27 27 26 25 25 25 25 26 26 26 28 28 28 29 29 30 30 29 29 30 29 29 29 29 29 29 29 29 29 29
26 22 25 24 24 25 26 25 23 26 27 22 24 28 20 19 18 20 18 14 17 18 20 22 23 23 24 24 24 22 20 21 22 26 27 27 27 27 27 27 26 26 25 25 25 25 26 26 26 26 27 27 27 27 27 27 28 27 27 26 25 24 24 24 25 25 25 26 27 29 28 27 27 28 28 28 29 28 27 27 27 27 28 28 28 28
31 24 26 28 25 26 26 26 21 23 27 26 25 23 26 23 22 19 21 20 21 20 21 22 24 23 26 23 21 20 24 24 25 26 26 25 25 25 25 25 25 24 24 23 23 23 24 24 24 25 26 26 27 27 27 27 27 26 26 26 25 24 24 24 23 23 23 23 24 25 25 26 26 26 26 26 26 25 25 25 26 26 26 27 27 26
26 30 24 26 29 26 24 25 25 25 24 22 21 20 21 20 25 24 23 25 22 21 21 21 19 21 23 22 22 26 26 27 27 26 26 25 24 24 24 24 23 22 22 22 22 22 22 22 23 23 24 25 26 26 27 27 26 26 26 25 25 23 23 23 24 24 23 23 23 23 23 24 25 25 25 25 25 25 24 24 25 24 25 25 25 25
25 28 25 25 26 25 25 26 25 26 25 25 23 22 22 21 20 20 20 26 25 22 20 19 18 21 26 27 26 26 27 27 28 26 25 25 24 24 24 23 22 21 21 21 21 20 21 21 22 22 23 24 24 25 25 26 26 25 25 25 25 23 23 23 24 25 24 23 22 22 22 23 24 24 24 24 24 24 24 24 23 23 23 24 24 25
29 29 27 26 26 26 27 27 28 27 27 27 25 25 25 25 26 26 22 23 24 23 23 22 20 21 29 27 26 25 25 25 26 25 24 24 24 23 23 22 22 21 20 19 19 19 19 19 19 20 22 23 24 25 25 26 26 25 25 25 24 23 22 23 24 26 26 25 23 22 22 22 22 23 23 24 24 24 24 23 23 23 22 23 23 24
33 18 24 27 29 30 30 31 31 27 28 27 27 27 26 25 26 25 26 25 22 22 22 21 21 26 34 28 27 25 26 25 25 24 23 23 23 23 23 22 21 20 19 18 19 18 18 18 18 19 20 21 23 24 24 25 26 26 25 25 24 23 23 23 24 26 27 26 25 24 23 22 21 21 22 23 23 23 23 23 23 23 22 22 22 23
26 27 29 27 27 28 29 30 29 28 29 28 27 28 27 27 29 28 27 23 24 26 25 24 20 26 35 29 27 27 26 25 24 24 24 23 23 23 22 22 21 21 20 18 18 18 18 17 18 19 20 21 22 24 24 25 25 25 25 24 24 23 23 24 25 26 26 27 26 25 25 24 23 21 21 21 22 22 23 23 23 23 22 21 21 22
31 30 29 24 21 19 18 17 17 22 25 27 28 28 29 30 30 30 25 26 24 27 28 26 25 28 33 31 28 25 23 25 24 24 24 23 23 22 23 23 22 20 20 18 18 18 18 18 19 19 20 21 22 24 24 25 25 25 25 24 25 24 23 24 26 26 26 26 26 26 25 25 24 23 22 21 21 21 21 22 23 22 22 22 21 21
28 31 31 30 27 25 24 26 28 31 29 28 28 28 29 30 31 31 30 27 24 24 23 24 25 24 25 27 25 23 21 23 24 23 23 23 23 23 23 22 23 20 20 19 19 19 18 18 18 19 21 21 22 23 24 24 25 25 24 24 24 24 24 25 26 26 26 26 26 26 26 25 25 24 24 23 21 21 20 21 23 23 23 22 21 21
29 30 31 31 31 30 31 31 32 32 30 29 29 28 28 27 28 29 28 25 28 27 23 27 29 28 28 29 25 22 20 22 25 23 23 23 23 23 22 20 24 18 19 20 19 19 19 18 19 20 21 21 23 23 23 24 24 24 24 23 24 24 24 26 26 26 25 25 25 26 26 25 25 25 25 25 24 23 22 21 22 23 24 24 22 21
29 29 30 29 28 29 29 28 29 29 29 29 29 29 28 29 29 28 28 29 28 26 23 26 27 26 25 25 24 22 19 19 25 24 24 25 24 23 21 18 18 16 18 19 20 19 19 19 19 20 21 22 23 23 23 23 22 23 21 21 23 23 23 26 26 25 25 24 25 25 26 25 25 25 26 26 26 26 25 24 23 23 24 24 24 23
29 25 28 29 27 27 28 28 27 27 28 28 29 29 30 30 28 28 27 28 28 27 27 27 26 25 25 23 23 24 22 18 20 22 25 24 23 23 21 17 17 15 17 19 20 20 20 20 20 20 21 22 23 23 22 22 22 22 21 20 21 21 22 26 26 25 24 23 24 25 25 25 25 25 26 26 26 26 26 26 25 25 25 25 25 25
30 23 28 26 24 24 27 28 28 27 26 24 25 25 26 26 25 25 24 24 24 23 23 23 23 23 23 21 19 23 23 20 21 16 20 21 23 23 21 17 16 15 16 18 20 20 20 20 20 20 21 22 23 23 23 22 22 21 19 19 20 20 22 25 25 24 23 23 24 25 25 25 24 24 25 26 26 28 28 27 28 28 27 27 27 26
25 21 25 23 20 19 22 22 22 23 20 19 19 19 19 18 18 19 19 20 19 18 18 18 17 19 20 21 22 22 22 18 18 16 16 19 22 23 21 17 15 15 16 18 20 21 21 20 20 20 21 22 23 23 22 22 21 20 19 20 20 20 21 23 24 23 22 22 24 25 25 24 24 24 25 26 27 27 27 28 28 28 28 28 27 26
25 22 21 21 19 18 22 22 21 18 17 16 16 17 18 17 17 17 17 17 18 19 19 16 16 15 16 21 15 17 21 19 19 17 17 17 23 23 22 18 16 15 17 19 20 21 21 21 20 20 21 22 23 23 22 22 20 19 19 20 20 20 20 22 22 21 21 22 24 25 25 24 24 24 25 25 26 26 26 26 26 27 27 27 27 27
26 25 23 24 18 17 20 20 17 14 9 10 22 24 17 12 11 10 10 12 20 24 21 20 17 16 17 19 17 16 18 19 17 18 19 19 19 23 23 19 16 16 18 20 21 22 22 21 21 20 21 22 23 23 22 21 20 19 20 20 19 19 20 21 21 20 20 22 24 25 25 24 25 24 24 25 26 25 25 25 25 25 26 27 27 27
25 24 22 24 17 15 18 15 13 8 9 21 22 22 21 21 20 20 21 20 16 17 17 17 16 15 18 20 19 18 19 19 20 21 20 19 23 23 22 19 16 17 18 20 21 21 22 21 21 20 20 21 22 22 21 19 18 18 19 18 17 17 19 19 19 19 19 21 23 24 24 24 23 23 23 25 25 25 25 25 25 25 25 26 26 26
22 21 20 18 17 11 12 12 5 4 15 18 21 20 19 18 19 18 18 21 17 15 18 19 20 17 21 21 21 21 21 21 22 22 22 21 21 23 22 18 15 17 18 19 20 22 22 21 20 20 20 22 22 20 18 17 17 18 18 17 17 17 18 18 18 17 18 20 22 22 22 21 21 21 23 25 25 25 25 25 25 25 25 24 25 25
22 20 14 13 10 10 6 7 7 7 9 9 10 15 18 16 16 13 11 14 20 17 17 17 20 22 21 22 22 22 23 22 21 20 20 18 21 24 22 18 18 18 20 20 21 21 21 21 20 19 20 20 19 18 17 16 17 17 16 16 16 16 16 16 16 16 16 18 19 19 18 17 17 19 23 25 25 25 24 25 25 24 24 24 24 24
24 19 16 13 7 14 6 6 5 1 2 3 12 14 17 14 16 18 14 12 21 22 21 20 20 20 21 21 22 22 22 17 15 13 16 21 22 24 22 21 20 21 20 20 20 20 20 19 18 17 18 17 16 16 15 16 16 16 15 15 14 15 14 14 14 14 16 16 18 16 15 15 17 19 23 25 25 24 24 24 24 24 23 23 23 23
22 22 19 17 13 13 10 8 7 6 6 13 12 12 13 17 18 18 14 9 20 21 18 20 19 20 20 19 20 20 15 9 11 12 11 19 21 19 17 18 19 19 19 19 19 18 18 17 16 17 16 14 13 12 13 15 15 14 14 14 13 13 13 13 12 14 14 15 14 14 14 14 16 20 24 24 24 23 23 23 23 23 23 22 23 23
19 21 21 16 15 15 13 11 8 10 6 12 12 13 13 20 22 16 4 4 12 16 14 16 17 17 19 19 17 16 14 8 10 11 11 13 17 16 16 17 17 17 17 18 18 18 17 17 15 14 13 12 11 11 12 13 13 14 13 12 12 12 12 12 12 12 13 13 12 13 13 13 15 18 22 22 22 22 22 22 21 22 23 23 22 22
4 7 11 13 15 16 17 13 13 13 14 12 14 13 16 17 8 -1 2 4 15 15 14 15 15 16 16 15 16 13 17 17 14 12 12 13 16 17 18 18 17 17 17 17 17 20 16 15 14 12 12 10 9 11 11 12 12 11 11 11 11 11 11 11 11 12 12 11 11 11 11 11 12 15 19 20 19 19 19 20 20 21 22 22 22 21
2 -4 1 3 9 13 13 10 11 8 13 14 13 12 13 4 -1 2 7 8 13 14 12 15 15 17 16 15 17 18 16 17 19 18 17 16 16 16 17 17 17 17 17 17 18 18 15 13 13 12 11 11 10 11 11 11 11 10 9 10 10 10 10 10 10 10 11 10 9 9 9 10 11 14 16 16 16 16 16 17 19 20 20 20 20 20
3 0 -4 4 4 2 4 6 5 3 3 13 12 4 5 2 5 12 11 10 11 8 8 13 15 14 15 15 16 17 17 17 18 18 18 18 17 17 17 17 17 16 16 15 14 14 14 12 11 11 10 10 10 10 10 10 9 9 10 9 8 8 9 9 9 9 8 8 8 7 8 8 10 12 13 12 12 12 12 14 16 18 20 20 20 20
8 1 -3 -1 7 0 -1 1 1 9 12 12 9 4 6 12 13 10 7 10 9 9 9 11 14 15 15 15 14 15 16 17 18 18 18 18 18 18 17 16 16 15 15 14 13 12 12 11 11 10 10 9 10 10 10 9 8 8 8 8 7 9 9 8 8 7 7 6 6 6 6 7 9 10 9 9 9 9 10 11 14 16 18 19 19 18
10 9 7 5 2 5 1 3 10 13 11 13 11 12 11 11 13 11 10 11 9 10 13 11 11 12 14 15 15 16 16 16 17 17 17 17 17 16 16 16 15 15 14 13 12 13 11 10 10 10 9 9 9 8 9 8 7 7 7 7 8 8 7 7 6 5 4 4 4 4 4 5 5 5 5 5 6 6 7 10 13 14 16 18 18 18
11 12 10 6 9 9 10 8 9 12 11 10 12 13 11 11 12 12 11 10 12 11 11 12 12 13 14 16 16 17 17 17 17 17 17 17 16 16 16 15 14 13 12 12 11 10 9 9 8 8 7 7 7 7 8 7 6 5 5 6 6 6 5 5 3 2 2 2 2 2 3 2 2 2 3 3 4 5 6 8 10 12 15 16 17 17
7 7 5 6 6 4 2 5 6 6 6 7 7 8 10 10 9 8 11 12 11 11 12 13 13 13 13 15 16 16 16 16 16 17 16 16 15 14 14 13 12 12 11 10 9 9 8 7 7 6 6 5 5 6 6 5 6 6 6 5 5 4 3 2 1 1 0 -0 -1 -0 0 -0 -0 -0 1 2 3 4 6 8 10 13 15 16 17 17
7 9 7 6 5 4 3 4 5 7 6 6 7 7 7 8 8 9 11 11 11 10 10 11 12 14 15 15 17 17 17 17 16 15 14 13 13 13 12 11 10 9 8 7 7 6 5 5 5 4 4 4 4 4 5 4 4 4 3 3 2 1 -0 -1 -2 -2 -2 -2 -2 -2 -2 -2 -0 -0 -1 0 2 2 4 6 9 11 13 15 16 16
10 12 2 6 6 6 7 7 7 8 9 9 9 10 10 10 9 9 9 10 10 10 12 14 14 15 14 15 14 13 12 13 12 12 11 11 11 10 9 8 7 6 6 6 5 5 4 3 3 2 2 2 3 3 3 2 2 2 0 0 -1 -2 -3 -4 -4 -4 -5 -4 -4 -5 -3 -3 -3 -2 -1 -0 1 3 5 6 8 10 13 16 17 17
12 11 9 9 8 8 8 8 9 5 7 8 9 8 8 9 9 9 9 11 12 12 12 12 12 12 12 11 12 11 9 10 10 9 8 8 8 7 6 5 5 4 4 3 3 2 2 2 1 0 0 0 0 -0 -1 -1 -1 -2 -2 -3 -4 -4 -5 -6 -6 -7 -7 -6 -6 -5 -5 -4 -3 -2 -1 -0 2 4 4 9 15 14 14 16 20 22
11 11 11 10 10 9 9 10 11 10 9 9 10 10 14 13 12 11 12 12 11 10 8 7 7 7 7 8 9 8 7 7 7 5 5 5 5 5 4 3 2 1 1 1 0 -0 -1 -1 -2 -3 -4 -4 -3 -4 -4 -5 -4 -5 -5 -4 -5 -5 -6 -7 -7 -7 -7 -7 -7 -5 -5 -5 -4 -4 -4 -3 -2 -1 1 2 5 14 17 18 18 19